[[{"header":{"parameterUnit":"m.s-1","parameterCategory":1,"la1":30.2991,"la2":30.254,"lo1":-89.0895,"lo2":-89.0444,"dy":0.0017,"dx":0.0017,"nx":28,"ny":28,"refTime":"2025-01-31T09:00:00:Z","depth":0,"parameterNumber":2,"parameterNumberName":"U-component_of_WINDS"},"data":[0,0,0,0,0,0,0,0,0,0,0,0,0,0,0,0,0,0,0,0,0,0,0,0,0,0,0,0,0,0,0,0,0,0,0,0,0,0,0,0,0,0,0,0,0,0,0,0,0,0,0,0,0,0,0,0,0,0,-0.0108,-0.0108,0,-0.0124,-0.0124,-0.0125,-0.014,-0.014,-0.0141,-0.0141,-0.0158,-0.0158,-0.0159,0,0,0,0,0,0,0,0,0,0,0,0,0,-0.0092,-0.0092,-0.0108,-0.0108,-0.0108,-0.0124,-0.0124,-0.0125,-0.014,-0.014,-0.0141,-0.0141,-0.0158,-0.0158,-0.0159,0,0,0,0,0,0,0,0,0,0,0,0,0,-0.0102,-0.0092,-0.0108,-0.0118,-0.0119,-0.0124,-0.0124,-0.0125,-0.014,-0.014,-0.0141,-0.0141,-0.0158,-0.0158,-0.0159,-0.0155,0,0,-0.016,-0.016,0,0,0,0,0,0,0,0,-0.0102,-0.0103,-0.0116,-0.0117,-0.0119,-0.013,-0.0125,-0.0135,-0.014,-0.0132,-0.0141,-0.0141,-0.0149,-0.015,-0.0152,-0.0156,-0.0157,-0.016,-0.016,-0.016,-0.016,0,0,0,0,0,0,0,-0.0101,-0.0102,-0.0114,-0.0117,-0.0118,-0.0122,-0.0124,-0.0127,-0.0139,-0.0133,-0.0134,-0.0136,-0.0149,-0.0152,-0.0153,-0.0157,-0.016,-0.016,-0.016,-0.0161,-0.0159,-0.0159,0,0,0,0,0,0,-0.0099,-0.0102,-0.0114,-0.0115,-0.0111,-0.0122,-0.0124,-0.0126,-0.0139,-0.0141,-0.0135,-0.0136,-0.0151,-0.0152,-0.0153,-0.015,-0.016,-0.0161,-0.0161,-0.0159,-0.0159,-0.0159,0,0,0,0,0,0,-0.0098,-0.01,-0.0113,-0.0109,-0.0111,-0.0122,-0.0124,-0.0127,-0.0129,-0.014,-0.0143,-0.0136,-0.0151,-0.0153,-0.0155,-0.0151,-0.0161,-0.0161,-0.016,-0.0159,-0.0159,-0.0144,0,0,0,0,0,0,-0.0098,-0.0099,-0.0098,-0.0108,-0.0111,-0.0114,-0.0124,-0.0127,-0.013,-0.0131,-0.0141,-0.0143,-0.0152,-0.0154,-0.0155,-0.0152,-0.0162,-0.016,-0.0159,-0.0159,-0.0145,-0.0143,-0.0141,0,0,0,0,0,-0.0097,-0.0093,-0.0098,-0.0099,-0.0109,-0.0114,-0.0115,-0.0124,-0.0129,-0.0128,-0.0135,-0.0143,-0.0151,-0.0154,-0.0155,-0.0152,-0.016,-0.016,-0.0159,-0.0145,-0.0143,-0.0141,0,0,0,0,0,0,-0.0082,-0.0095,-0.01,-0.0099,-0.0105,-0.0116,-0.0115,-0.0122,-0.0127,-0.0128,-0.0139,-0.0142,-0.0142,-0.0147,-0.015,-0.015,-0.0157,-0.0156,-0.0146,-0.0144,-0.0143,-0.0141,-0.0162,0,0,0,0,0,-0.0078,-0.008,-0.0092,-0.009,-0.0093,-0.0103,-0.0105,-0.0112,-0.0119,-0.0122,-0.0129,-0.0136,-0.014,-0.0142,-0.0147,-0.0146,-0.0148,-0.0144,-0.0143,-0.0141,-0.0141,-0.0141,-0.0139,-0.0157,-0.0157,-0.0157,0,0,-0.0071,-0.0078,-0.0079,-0.0087,-0.0092,-0.0095,-0.0105,-0.0107,-0.0109,-0.0122,-0.0124,-0.013,-0.0138,-0.0138,-0.0139,-0.0143,-0.0137,-0.014,-0.0139,-0.0139,-0.014,-0.0138,-0.0137,-0.0156,-0.0156,-0.0156,0,0,-0.0059,-0.0065,-0.0064,-0.0069,-0.0077,-0.0085,-0.0084,-0.0095,-0.0099,-0.0101,-0.0111,-0.0114,-0.0121,-0.0126,-0.013,-0.0121,-0.0128,-0.0122,-0.0113,-0.0113,-0.0112,-0.0111,-0.0108,-0.0106,-0.0121,-0.0121,-0.0121,0,-0.0049,-0.0053,-0.0063,-0.0064,-0.0068,-0.0079,-0.0079,-0.0084,-0.0093,-0.0095,-0.0099,-0.0108,-0.0115,-0.0117,-0.0114,-0.0117,-0.0118,-0.012,-0.0111,-0.011,-0.0109,-0.0106,-0.0105,-0.012,-0.012,-0.0121,-0.0121,0,-0.004,-0.0043,-0.0041,-0.005,-0.0053,-0.0053,-0.0064,-0.0066,-0.0073,-0.0079,-0.0082,-0.009,-0.0096,-0.0097,-0.0104,-0.0101,-0.0103,-0.0109,-0.0116,-0.0107,-0.0104,-0.0103,-0.0119,-0.0119,-0.012,-0.012,0,0,-0.0019,-0.0033,-0.0032,-0.0036,-0.0046,-0.0049,-0.005,-0.0056,-0.0058,-0.0064,-0.0066,-0.0071,-0.0077,-0.0081,-0.0089,-0.0089,-0.0081,-0.0095,-0.0095,-0.0092,-0.0078,-0.0074,-0.0072,-0.0086,-0.0086,-0.0086,-0.0078,0,-0.0009,-0.0011,-0.002,-0.002,-0.0023,-0.0034,-0.0036,-0.0042,-0.0049,-0.0052,-0.006,-0.0063,-0.0071,-0.0074,-0.0074,-0.0082,-0.0079,-0.0083,-0.0088,-0.0088,-0.0086,-0.0071,-0.0066,-0.0057,-0.0077,-0.0077,-0.0077,0,0.0003,-0.0002,-0.0002,-0.0012,-0.0014,-0.0015,-0.0021,-0.0024,-0.0032,-0.0037,-0.0042,-0.005,-0.0053,-0.006,-0.0064,-0.0066,-0.0069,-0.0073,-0.0073,-0.0074,-0.0082,-0.0071,-0.0055,-0.0054,-0.0075,-0.0075,-0.0075,0,0.0019,0.0012,0.0011,0.0007,-0.0005,-0.0005,-0.001,-0.0018,-0.0021,-0.0027,-0.003,-0.0036,-0.0039,-0.0044,-0.0054,-0.0058,-0.0057,-0.0065,-0.0061,-0.0061,-0.006,-0.006,-0.0044,-0.0062,-0.0062,-0.0062,-0.0062,0,0.0031,0.0032,0.0017,0.0017,0.0017,0.0006,0.0006,-0.0,-0.0008,-0.001,-0.0021,-0.0023,-0.0036,-0.004,-0.0047,-0.005,-0.0051,-0.0055,-0.0057,-0.0054,-0.0054,-0.0056,-0.0057,-0.0062,-0.0062,-0.0062,-0.0062,0,0.0049,0.0039,0.0037,0.0026,0.0023,0.0024,0.0014,0.0013,0.0005,0.0002,0.0001,-0.0011,-0.0016,-0.0026,-0.0034,-0.004,-0.004,-0.0044,-0.0037,-0.0038,-0.0034,-0.0035,-0.0019,-0.0018,-0.0037,-0.0037,-0.0036,0,0.0057,0.0057,0.0046,0.0044,0.0039,0.0036,0.0033,0.0021,0.0018,0.0009,0.0009,0.0003,-0.0002,-0.001,-0.0019,-0.0026,-0.003,-0.0024,-0.0031,-0.0028,-0.003,-0.003,-0.003,-0.0022,-0.0022,-0.0022,-0.0022,0,0.0074,0.0069,0.0065,0.0059,0.0055,0.005,0.0044,0.0043,0.003,0.0027,0.0022,0.0018,0.0009,0.0004,-0.0004,-0.001,-0.0018,-0.002,-0.0019,-0.0016,-0.0012,-0.0014,-0.0033,-0.002,-0.002,-0.002,-0.002,-0.002,0.0087,0.0086,0.0078,0.0074,0.0068,0.0063,0.0061,0.0053,0.0049,0.0042,0.0035,0.0031,0.0022,0.0011,0.0005,0.0001,-0.0003,-0.0002,-0.0002,-0.0001,-0.0,-0.0011,-0.0,-0.0,-0.0,-0.0,-0.0,0,0.0102,0.0097,0.0093,0.0085,0.0081,0.0074,0.0067,0.0064,0.006,0.0053,0.0048,0.0042,0.0036,0.0026,0.002,0.0018,0.0014,0.0017,0.0017,0.0015,0.0004,0.0004,0.002,0.002,0.002,0.002,0.002,0.002,0.011,0.0109,0.0103,0.0098,0.0092,0.0088,0.0085,0.0079,0.0074,0.0067,0.0063,0.0056,0.0048,0.004,0.0034,0.0031,0.0029,0.0033,0.0029,0.0018,0.0016,0.0014,0.0015,0.0033,0.0033,0.0041,0.0041,0.0041]},{"header":{"parameterUnit":"m.s-1","parameterCategory":1,"la1":30.2991,"la2":30.254,"lo1":-89.0895,"lo2":-89.0444,"dy":0.0017,"dx":0.0017,"nx":28,"ny":28,"refTime":"2025-01-31T09:00:00:Z","depth":0,"parameterNumber":3,"parameterNumberName":"V-component_of_WINDS"},"data":[0,0,0,0,0,0,0,0,0,0,0,0,0,0,0,0,0,0,0,0,0,0,0,0,0,0,0,0,0,0,0,0,0,0,0,0,0,0,0,0,0,0,0,0,0,0,0,0,0,0,0,0,0,0,0,0,0,0,6.4566,6.4566,0,6.4625,6.4626,6.4626,6.4606,6.4605,6.4604,6.4603,6.4658,6.466,6.4663,0,0,0,0,0,0,0,0,0,0,0,0,0,6.4432,6.4434,6.4566,6.4566,6.4567,6.4625,6.4626,6.4627,6.4607,6.4605,6.4604,6.4602,6.4657,6.466,6.4663,0,0,0,0,0,0,0,0,0,0,0,0,0,6.449,6.4435,6.4566,6.4564,6.4565,6.4625,6.4626,6.4627,6.4607,6.4605,6.4603,6.4601,6.4656,6.466,6.4664,6.4727,0,0,6.4676,6.4678,0,0,0,0,0,0,0,0,6.4487,6.4495,6.4564,6.4565,6.4565,6.4607,6.4599,6.466,6.4607,6.4591,6.4603,6.46,6.4642,6.4647,6.4662,6.4729,6.4732,6.4676,6.4679,6.468,6.4681,0,0,0,0,0,0,0,6.4483,6.4493,6.4589,6.4565,6.4566,6.456,6.4566,6.461,6.4626,6.4592,6.4591,6.4598,6.4642,6.4658,6.4663,6.4732,6.4676,6.468,6.4682,6.4684,6.4858,6.4861,0,0,0,0,0,0,6.4479,6.4489,6.4587,6.4591,6.4521,6.4564,6.4571,6.4595,6.4626,6.4629,6.46,6.4597,6.4652,6.4659,6.4665,6.4744,6.468,6.4684,6.4686,6.4856,6.4859,6.4861,0,0,0,0,0,0,6.4476,6.4488,6.4585,6.454,6.4552,6.4568,6.4596,6.4597,6.4614,6.4632,6.4634,6.4614,6.4651,6.4659,6.4713,6.4746,6.4686,6.4689,6.4854,6.4857,6.486,6.4901,0,0,0,0,0,0,6.4473,6.4487,6.4512,6.4541,6.4554,6.4633,6.4598,6.46,6.4621,6.4618,6.4646,6.4648,6.465,6.4707,6.4717,6.475,6.4693,6.4851,6.4855,6.4859,6.4896,6.4905,6.4912,0,0,0,0,0,6.4468,6.4518,6.4513,6.4525,6.4586,6.4634,6.4642,6.4645,6.4624,6.4649,6.4661,6.4647,6.474,6.4713,6.4724,6.4758,6.4849,6.4854,6.4859,6.4893,6.4903,6.4912,0,0,0,0,0,0,6.449,6.4522,6.4516,6.4578,6.4604,6.4631,6.4662,6.4655,6.4686,6.4682,6.4682,6.4689,6.4744,6.4756,6.4725,6.4823,6.4791,6.4799,6.4813,6.4823,6.4831,6.4828,6.4696,0,0,0,0,0,6.4502,6.4541,6.4566,6.4618,6.4632,6.4645,6.4666,6.4667,6.4693,6.4703,6.4719,6.4743,6.4779,6.4801,6.4834,6.4898,6.4905,6.4927,6.4935,6.4942,6.4948,6.4986,6.4998,6.4878,6.4878,6.4878,0,0,6.4527,6.455,6.4573,6.4623,6.4643,6.4683,6.4654,6.4696,6.4725,6.4708,6.4762,6.4774,6.4802,6.4862,6.4889,6.4873,6.4983,6.4948,6.4953,6.4956,6.4993,6.5004,6.5014,6.4882,6.4881,6.488,0,0,6.4594,6.4614,6.4662,6.4684,6.4716,6.4726,6.4737,6.4766,6.4775,6.4829,6.4818,6.4852,6.4912,6.4933,6.4952,6.5031,6.5021,6.5042,6.5083,6.512,6.513,6.5138,6.5169,6.518,6.5048,6.5048,6.5048,0,6.4621,6.4682,6.4686,6.4732,6.4755,6.4745,6.4793,6.4813,6.4854,6.487,6.4852,6.493,6.4947,6.5014,6.5034,6.5048,6.5062,6.5039,6.5128,6.5137,6.5145,6.5174,6.5185,6.5051,6.505,6.505,6.505,0,6.4715,6.4757,6.4791,6.4835,6.4862,6.4908,6.4919,6.4946,6.4945,6.4956,6.5012,6.5033,6.5072,6.5088,6.5085,6.5155,6.5145,6.5128,6.5096,6.5159,6.5187,6.5198,6.5054,6.5053,6.5053,6.5052,0,0,6.4795,6.4844,6.4857,6.4878,6.4915,6.4947,6.4994,6.5035,6.5059,6.5087,6.5127,6.518,6.5166,6.5187,6.5187,6.5219,6.5285,6.5199,6.5199,6.5216,6.5366,6.5381,6.5394,6.5278,6.528,6.5282,6.5365,0,6.4867,6.4951,6.4959,6.5034,6.5075,6.5068,6.5109,6.5136,6.5148,6.5183,6.5195,6.5235,6.5211,6.5225,6.5256,6.527,6.5315,6.5264,6.5316,6.5317,6.5311,6.5408,6.5422,6.5499,6.5376,6.5377,6.5379,0,6.4961,6.4998,6.5079,6.5114,6.5131,6.5168,6.5208,6.5242,6.5273,6.528,6.5306,6.5303,6.5351,6.5317,6.5384,6.535,6.5371,6.5381,6.5384,6.539,6.5353,6.5418,6.5524,6.5536,6.5395,6.5394,6.5393,0,6.5016,6.5084,6.5143,6.5161,6.5202,6.5229,6.5247,6.5276,6.5302,6.5336,6.5353,6.5391,6.5413,6.5443,6.545,6.5425,6.5518,6.5484,6.5526,6.5526,6.5546,6.5545,6.5659,6.5557,6.5557,6.5557,6.5556,0,6.5096,6.5147,6.5169,6.5204,6.5261,6.5269,6.5325,6.5341,6.5368,6.5407,6.5401,6.5438,6.5445,6.5483,6.5489,6.5545,6.5554,6.5561,6.5562,6.5563,6.5562,6.5578,6.5573,6.556,6.5559,6.5558,6.5558,0,6.5166,6.5183,6.5247,6.5283,6.5293,6.5334,6.5364,6.5399,6.5411,6.5461,6.5473,6.5492,6.5537,6.5548,6.5599,6.5604,6.5671,6.5666,6.5662,6.5662,6.5704,6.5701,6.5833,6.5852,6.5736,6.5737,6.5738,0,6.5218,6.5257,6.5299,6.5327,6.5347,6.539,6.5418,6.5428,6.5456,6.5497,6.5527,6.5572,6.5608,6.568,6.5698,6.5739,6.5736,6.5779,6.5741,6.5742,6.5739,6.5738,6.5743,6.5787,6.5788,6.5789,6.579,0,6.5308,6.5315,6.5356,6.5402,6.5436,6.5471,6.5504,6.5526,6.5541,6.5573,6.5621,6.565,6.5705,6.575,6.5792,6.5809,6.5803,6.5802,6.5814,6.5815,6.5813,6.5818,6.5684,6.5799,6.5798,6.5797,6.5797,6.5796,6.5372,6.5408,6.5445,6.5492,6.5519,6.5552,6.5588,6.5607,6.5648,6.5696,6.5699,6.5751,6.5783,6.5839,6.586,6.59,6.5887,6.5904,6.5908,6.5913,6.5918,6.5805,6.5907,6.5907,6.5907,6.5907,6.5906,0,6.5464,6.5489,6.5532,6.5582,6.5619,6.5612,6.565,6.5681,6.5728,6.576,6.5798,6.5854,6.5899,6.5922,6.5966,6.5994,6.5993,6.6006,6.6004,6.6009,6.5926,6.5913,6.6007,6.6007,6.6007,6.6007,6.6007,6.6007,6.5517,6.5579,6.5592,6.5668,6.5691,6.5745,6.5768,6.5798,6.5825,6.5889,6.5927,6.5943,6.5972,6.6019,6.606,6.6066,6.6083,6.6099,6.6103,6.6025,6.6015,6.6005,6.5992,6.6102,6.6102,6.6183,6.6183,6.6184]}]]